DateTimeUTC,F1_A11,F1_S11,BsB_S11,BsG_S11,BsR_S11,BbsB_S11,BbsG_S11,BbsR_S11,BaB_A11,BaG_A11,BaR_A11,Tu_S11,T_S11,Uu_S11,U_S11,P_S11,T1_A11
2021-08-16T01:00:00Z,00000200,20000000,,,,,,,-000.11,-000.01,-000.07,18.7,25.2,11.1,07.4,0674.9,30.9
2021-08-16T01:01:00Z,00000200,20000000,,,,,,,-000.05,-000.27,0000.37,18.7,25.3,11.1,07.4,0674.9,30.9
2021-08-16T01:02:00Z,00000200,20000000,,,,,,,-000.06,0000.08,-000.44,18.7,25.3,11.0,07.4,0674.9,30.9
2021-08-16T01:03:00Z,00000200,60000000,,,,,,,0000.29,0000.34,0000.35,18.7,25.3,10.8,07.2,0674.9,30.9
2021-08-16T01:04:00Z,00000200,40000000,0000.90,0001.05,0000.63,0001.02,0000.35,0000.58,0000.33,0000.23,0000.40,18.9,25.1,10.8,07.4,0675.8,30.9
2021-08-16T01:05:00Z,00000200,00000000,0001.80,0001.08,0000.86,0000.82,0000.12,0000.27,0000.39,0000.35,-000.01,18.9,25.1,10.8,07.4,0675.9,30.9
2021-08-16T01:06:00Z,00000200,00000000,0000.64,0001.32,0000.58,0000.45,0000.43,0000.11,0000.09,0000.20,0000.43,18.9,25.1,10.9,07.5,0676.0,30.9
2021-08-16T01:07:00Z,00000200,00000000,0001.19,0001.04,0000.79,-000.06,0000.11,0000.00,0000.41,0000.12,0000.05,18.9,25.1,11.0,07.6,0675.9,30.9
2021-08-16T01:08:00Z,00000200,00000000,0001.61,0001.03,0000.63,0000.85,0000.24,-000.04,0000.23,0000.45,0000.29,18.9,25.1,11.0,07.6,0675.9,30.9
2021-08-16T01:09:00Z,00000200,00000000,0000.54,0001.02,0000.66,0000.59,0000.49,0000.20,0000.39,0000.46,0000.32,18.9,25.1,11.0,07.6,0675.9,30.9
2021-08-16T01:10:00Z,00000200,00000000,0001.02,0000.85,0000.17,-000.12,0000.41,0000.19,0000.51,0000.05,0000.07,18.9,25.0,11.1,07.6,0675.9,30.9
2021-08-16T01:11:00Z,00000200,00000000,0001.23,0001.37,0000.60,0000.47,0000.25,0000.25,0000.04,0000.37,0000.51,18.9,25.1,11.1,07.6,0675.9,30.9
2021-08-16T01:12:00Z,00000200,00000000,0001.16,0001.23,0000.59,0000.62,0000.50,0000.20,0000.33,0000.38,-000.03,19.0,25.1,11.0,07.6,0675.9,30.9
2021-08-16T01:13:00Z,00000200,00000000,0001.08,0000.97,0000.95,0000.26,0000.14,0000.33,0000.24,-000.02,0000.14,19.0,25.1,11.0,07.6,0676.0,30.9
2021-08-16T01:14:00Z,00000200,00000000,0001.35,0000.84,0000.54,0000.71,0000.48,0000.33,0000.52,0000.17,0000.30,19.0,25.1,11.1,07.6,0676.0,30.9
2021-08-16T01:15:00Z,00000200,00000000,0001.74,0000.82,0000.50,0000.67,0000.26,0000.02,0000.16,0000.39,0000.08,19.0,25.1,11.0,07.6,0676.0,30.9
2021-08-16T01:16:00Z,00000200,00000000,0001.23,0001.00,0000.61,0000.29,0000.10,0000.31,-000.26,0000.28,0000.04,19.0,25.1,11.0,07.6,0675.9,30.9
2021-08-16T01:17:00Z,00000200,00000000,0000.93,0001.21,0000.61,0000.37,0000.19,0000.27,0000.62,-000.19,0000.53,19.0,25.1,11.0,07.6,0675.9,30.9
2021-08-16T01:18:00Z,00000200,00000000,0001.94,0001.01,0000.69,0000.44,0000.27,0000.23,0000.20,0000.35,-000.21,19.0,25.1,11.1,07.7,0675.9,30.9
2021-08-16T01:19:00Z,00000200,00000000,0001.70,0001.04,0000.61,0000.47,0000.28,0000.43,0000.27,0000.17,0000.20,19.0,25.1,11.0,07.6,0675.9,30.9
2021-08-16T01:20:00Z,00000200,00000000,0001.53,0000.93,0000.44,0000.25,0000.21,0000.16,0000.13,0000.35,0000.28,19.0,25.1,10.9,07.5,0675.9,30.9
2021-08-16T01:21:00Z,00000200,00000000,0000.72,0000.86,0000.51,0000.47,0000.18,0000.06,0000.13,0000.07,0000.06,19.0,25.1,10.9,07.5,0675.9,30.9
2021-08-16T01:22:00Z,00000200,00000000,0000.85,0000.95,0000.66,0000.65,0000.12,0000.04,-000.03,-000.02,0000.16,18.9,25.1,10.9,07.5,0675.9,30.9
2021-08-16T01:23:00Z,00000200,00000000,0000.47,0001.26,0000.78,0000.71,0000.29,0000.57,0000.29,0000.65,0000.14,18.9,25.0,10.8,07.4,0675.9,30.9
2021-08-16T01:24:00Z,00000200,00000000,0001.13,0001.50,0000.67,0000.69,0000.11,-000.01,0000.29,-000.16,0000.23,18.9,25.0,11.0,07.5,0675.9,30.9
2021-08-16T01:25:00Z,00000200,00000000,0000.89,0001.53,0000.97,0000.37,0000.54,0000.24,0000.62,0000.07,-000.28,18.9,25.0,10.8,07.4,0675.9,30.9
2021-08-16T01:26:00Z,00000200,00000000,0000.08,0001.22,0000.49,0000.75,0000.24,0000.21,0000.13,0000.42,0000.58,18.9,25.0,11.0,07.5,0675.9,30.9
2021-08-16T01:27:00Z,00000200,00000000,0001.35,0001.22,0000.83,0000.23,0000.12,0000.51,-000.25,0000.03,0000.11,18.9,25.0,10.7,07.4,0675.9,30.9
2021-08-16T01:28:00Z,00000200,00000000,0000.91,0000.98,0000.68,0000.30,0000.03,0000.53,0000.50,0000.28,-000.04,18.9,25.0,10.8,07.4,0675.8,30.9
2021-08-16T01:29:00Z,00000200,00000000,0000.96,0001.23,0000.79,0000.03,0000.12,0000.60,-000.05,-000.28,-000.02,18.9,25.0,10.6,07.3,0675.9,30.9
2021-08-16T01:30:00Z,00000200,00000000,0001.63,0000.80,0000.46,0000.47,0000.13,0000.37,0000.30,0000.65,0000.33,18.9,25.0,10.6,07.3,0675.8,30.9
2021-08-16T01:31:00Z,00000200,00000000,0000.75,0001.10,0000.77,0000.95,0000.16,0000.19,0000.20,0000.25,0000.27,18.9,25.0,10.6,07.3,0675.8,30.9
2021-08-16T01:32:00Z,00000200,00000000,0001.05,0000.99,0000.63,-000.07,0000.57,0000.24,0000.09,0000.03,0000.19,18.9,25.0,10.6,07.3,0675.9,30.9
2021-08-16T01:33:00Z,00000200,00000000,0001.35,0000.56,0000.92,0000.18,0000.21,0000.43,0000.30,0000.42,0000.36,18.9,25.0,10.7,07.4,0675.9,30.9
2021-08-16T01:34:00Z,00000200,00000000,0000.97,0001.08,0000.59,0000.72,0000.22,0000.21,0000.22,-000.17,-000.20,18.9,25.0,10.7,07.4,0675.9,30.9
2021-08-16T01:35:00Z,00000200,00000000,0001.59,0001.14,0000.33,0000.56,0000.50,0000.00,0000.15,0000.13,-000.03,18.8,25.0,10.7,07.3,0675.8,30.9
2021-08-16T01:36:00Z,00000200,00000000,0000.93,0000.87,0000.71,0001.11,0000.26,0000.35,0000.68,0000.83,0000.62,18.8,25.0,10.7,07.4,0675.8,30.9
2021-08-16T01:37:00Z,00000200,00000000,0001.57,0000.85,0000.39,0000.67,0000.22,0000.19,0000.27,-000.07,-000.24,18.8,24.9,10.8,07.4,0675.9,30.9
2021-08-16T01:38:00Z,00000200,00000000,0000.98,0001.01,0000.60,-000.07,0000.45,0000.27,-000.08,0000.26,0000.29,18.8,25.0,10.8,07.4,0675.9,30.9
2021-08-16T01:39:00Z,00000200,00000000,0001.39,0001.16,0000.78,-000.02,0000.31,0000.01,0000.24,0000.41,0000.12,18.8,24.9,10.8,07.4,0675.8,30.9
2021-08-16T01:40:00Z,00000200,00000000,0001.16,0000.92,0000.63,0000.79,0000.25,0000.12,0000.16,0000.00,0000.28,18.8,24.9,10.7,07.4,0675.9,30.9
2021-08-16T01:41:00Z,00000200,00000000,0000.75,0000.85,0000.79,0000.57,0000.47,0000.85,0000.60,0000.17,0000.10,18.8,24.9,10.8,07.4,0675.9,30.9
2021-08-16T01:42:00Z,00000200,00000000,0001.29,0000.72,0000.50,0000.44,0000.19,0000.46,-000.05,-000.05,0000.18,18.8,25.0,10.8,07.4,0675.9,30.9
2021-08-16T01:43:00Z,00000200,00000000,0000.53,0000.88,0000.33,0000.00,0000.32,0000.32,0000.15,0000.48,0000.40,18.9,25.0,10.6,07.3,0675.9,30.9
2021-08-16T01:44:00Z,00000200,00000000,0001.19,0000.96,0000.27,0000.63,0000.27,0000.23,0000.54,-000.05,-000.02,18.9,25.0,10.7,07.3,0675.9,30.9
2021-08-16T01:45:00Z,00000200,00000000,0001.49,0001.13,0000.67,0000.21,0000.31,0000.16,0000.15,0000.62,0000.05,18.9,25.0,10.6,07.3,0675.9,30.9
2021-08-16T01:46:00Z,00000200,00000000,0001.73,0000.80,0000.71,0000.30,0000.03,0000.54,0000.06,0000.09,0000.27,18.9,25.0,10.8,07.4,0675.9,30.9
2021-08-16T01:47:00Z,00000200,00000000,0002.31,0001.23,0000.51,0000.50,0000.43,0000.13,-000.14,0000.03,-000.01,18.9,25.0,10.6,07.3,0675.9,30.9
2021-08-16T01:48:00Z,00000200,00000000,0000.95,0000.96,0000.62,0000.76,0000.14,0000.07,0000.08,0000.07,0000.34,18.9,25.0,10.7,07.4,0675.9,30.9
2021-08-16T01:49:00Z,00000200,00000000,0001.27,0000.69,0000.88,0000.28,0000.40,0000.48,0000.41,0000.20,-000.12,18.9,25.0,10.6,07.3,0675.9,30.9
2021-08-16T01:50:00Z,00000200,00000000,0001.23,0000.81,0000.66,0000.17,0000.50,0000.06,0000.22,0000.14,-000.01,18.9,25.0,10.6,07.3,0675.9,30.9
2021-08-16T01:51:00Z,00000200,00000000,0001.35,0001.05,0000.61,-000.07,0000.00,-000.05,0000.01,0000.35,0000.07,18.9,25.0,10.4,07.1,0675.8,30.9
2021-08-16T01:52:00Z,00000200,00000000,0001.35,0001.05,0000.56,0000.40,0000.40,0000.30,0000.25,-000.08,0000.11,18.9,25.0,10.4,07.2,0675.9,30.9
2021-08-16T01:53:00Z,00000200,00000000,0001.04,0001.12,0000.36,0000.51,0000.21,0000.07,0000.01,0000.11,0000.29,18.8,25.0,10.3,07.1,0675.9,30.9
2021-08-16T01:54:00Z,00000200,00000000,0001.02,0001.07,0000.75,-000.01,0000.45,0000.32,0000.39,0000.46,0000.04,18.8,25.0,10.3,07.1,0675.9,30.9
2021-08-16T01:55:00Z,00000200,00000000,0001.43,0000.84,0000.47,0000.80,0000.29,0000.04,0000.02,0000.16,0000.06,18.8,24.9,10.3,07.1,0675.9,30.9
2021-08-16T01:56:00Z,00000200,00000000,0002.34,0000.91,0000.58,0000.20,0000.40,0000.45,-000.03,-000.37,0000.29,18.8,24.9,10.2,07.0,0675.9,30.9
2021-08-16T01:57:00Z,00000200,40000000,,,,,,,0000.63,0000.63,-000.00,18.9,25.0,09.9,06.8,0675.8,30.9
2021-08-16T01:58:00Z,00000200,60000000,,,,,,,-000.42,-000.23,-000.18,18.5,25.0,10.4,07.0,0674.9,30.9
2021-08-16T01:59:00Z,00000200,20000000,,,,,,,-000.12,-000.12,0000.25,18.5,25.1,10.3,06.8,0674.9,30.9
